TimePST,TemperatureF,Dew PointF,Humidity,Sea Level PressureIn,VisibilityMPH,Wind Direction,Wind SpeedMPH,Gust SpeedMPH,PrecipitationIn,Events,Conditions,WindDirDegrees,DateUTC
12:53 AM,39.0,35.1,86,30.32,10.0,South,3.5,-,N/A,,Clear,180,2013-02-01 08:53:00
1:53 AM,39.0,35.1,86,30.33,10.0,SE,4.6,-,N/A,,Clear,130,2013-02-01 09:53:00
2:53 AM,36.0,33.1,89,30.33,10.0,Calm,Calm,-,N/A,,Clear,0,2013-02-01 10:53:00
4:53 AM,36.0,33.1,89,30.34,10.0,ESE,5.8,-,N/A,,Clear,120,2013-02-01 12:53:00
5:53 AM,33.1,30.0,89,30.34,10.0,Calm,Calm,-,N/A,,Clear,0,2013-02-01 13:53:00
7:53 AM,30.9,28.9,92,30.37,10.0,Calm,Calm,-,N/A,,Clear,0,2013-02-01 15:53:00
8:53 AM,37.0,34.0,89,30.39,10.0,Calm,Calm,-,N/A,,Clear,0,2013-02-01 16:53:00
9:53 AM,41.0,35.1,79,30.40,10.0,Calm,Calm,-,N/A,,Clear,0,2013-02-01 17:53:00
10:53 AM,45.0,37.9,76,30.40,10.0,Calm,Calm,-,N/A,,Clear,0,2013-02-01 18:53:00
11:53 AM,48.0,37.9,68,30.40,10.0,Calm,Calm,-,N/A,,Clear,0,2013-02-01 19:53:00
1:53 PM,54.0,37.9,55,30.35,10.0,Calm,Calm,-,N/A,,Clear,0,2013-02-01 21:53:00
2:53 PM,54.0,37.9,55,30.34,10.0,Calm,Calm,-,N/A,,Clear,0,2013-02-01 22:53:00
3:53 PM,55.0,37.9,53,30.34,10.0,Calm,Calm,-,N/A,,Clear,0,2013-02-01 23:53:00
4:53 PM,50.0,37.0,61,30.34,10.0,Calm,Calm,-,N/A,,Clear,0,2013-02-02 00:53:00
5:53 PM,45.0,36.0,71,30.36,10.0,Calm,Calm,-,N/A,,Clear,0,2013-02-02 01:53:00
6:53 PM,43.0,35.1,74,30.38,10.0,Calm,Calm,-,N/A,,Clear,0,2013-02-02 02:53:00
7:53 PM,39.9,33.1,77,30.40,10.0,Calm,Calm,-,N/A,,Clear,0,2013-02-02 03:53:00
8:53 PM,37.9,33.1,83,30.42,10.0,Calm,Calm,-,N/A,,Clear,0,2013-02-02 04:53:00
9:53 PM,34.0,30.0,85,30.44,10.0,Calm,Calm,-,N/A,,Clear,0,2013-02-02 05:53:00
10:53 PM,36.0,30.9,82,30.45,10.0,East,4.6,-,N/A,,Clear,100,2013-02-02 06:53:00
11:53 PM,33.1,30.0,89,30.46,10.0,ESE,5.8,-,N/A,,Clear,110,2013-02-02 07:53:00